This is the latest recevied weather packets stored in our database for station/object WB9PAR. If no packets are shown the sender has not sent any weather packets the latest 10 day(s).
| Time | Temp. | Humidity | Pressure | Rain* | Wind** | Luminosity | Snow |
|---|---|---|---|---|---|---|---|
| 1788547483 | 36.11° C | 48% | 1046.5 hPa | 0 mm | - | 724 W/m² | - |
| 1788547178 | 36.11° C | 51% | 1046.5 hPa | 0 mm | - | 737 W/m² | - |
| 1788546873 | 35.56° C | 50% | 1046.5 hPa | 0 mm | - | 744 W/m² | - |
| 1788546569 | 35.56° C | 51% | 1046.6 hPa | 0 mm | - | 741 W/m² | - |
| 1788546264 | 36.11° C | 49% | 1046.7 hPa | 0 mm | - | 150 W/m² | - |
| 1788545959 | 35.56° C | 52% | 1046.5 hPa | 0 mm | - | 796 W/m² | - |
| 1788545654 | 35.56° C | 53% | 1046.5 hPa | 0 mm | - | 735 W/m² | - |
| 1788545349 | 35° C | 53% | 1046.4 hPa | 0 mm | - | 772 W/m² | - |
| 1788545044 | 35° C | 51% | 1046.6 hPa | 0 mm | - | 214 W/m² | - |
| 1788544744 | 35° C | 51% | 1046.6 hPa | 0 mm | - | 821 W/m² | - |
| 1788544443 | 35° C | 52% | 1046.7 hPa | 0 mm | - | 263 W/m² | - |
| 1788544143 | 35.56° C | 50% | 1046.7 hPa | 0 mm | - | 224 W/m² | - |
| 1788543838 | 35.56° C | 48% | 1046.8 hPa | 0 mm | - | 297 W/m² | - |
| 1788543534 | 35.56° C | 52% | 1046.8 hPa | 0 mm | - | 343 W/m² | - |
| 1788543229 | 35.56° C | 48% | 1046.8 hPa | 0 mm | - | 411 W/m² | - |
| 1788542941 | 36.11° C | 49% | 1046.9 hPa | 0 mm | - | 714 W/m² | - |
| 1788542624 | 36.11° C | 50% | 1047 hPa | 0 mm | - | 334 W/m² | - |
| 1788542319 | 35.56° C | 50% | 1047.3 hPa | 0 mm | - | 805 W/m² | - |
| 1788542014 | 35.56° C | 50% | 1046.9 hPa | 0 mm | - | 763 W/m² | - |
| 1788541711 | 35.56° C | 49% | 1047.3 hPa | 0 mm | - | 707 W/m² | - |
| 1788541406 | 35.56° C | 51% | 1047.2 hPa | 0 mm | - | 754 W/m² | - |
| 1788541101 | 35.56° C | 49% | 1047.4 hPa | 0 mm | - | 792 W/m² | - |
| 1788540800 | 35.56° C | 51% | 1047.5 hPa | 0 mm | - | 813 W/m² | - |
| 1788540495 | 35° C | 51% | 1047.5 hPa | 0 mm | - | 811 W/m² | - |
| 1788540195 | 35.56° C | 51% | 1047.5 hPa | 0 mm | - | 745 W/m² | - |
* Rain latest hour (hover to see other rain measurements)
** Current wind speed in m/s (hover to see current wind gust speed)